Time,TemperatureF,DewpointF,PressureIn,WindDirection,WindDirectionDegrees,WindSpeedMPH,WindSpeedGustMPH,Humidity,HourlyPrecipIn,Conditions,Clouds,dailyrainin,SoftwareType,DateUTC
2013-01-06 14:12:00,34.0,2.0,-100.00,SW,230,10.0,14.0,25,0.00,,,-99.99,,2013-01-06 21:12:00,
2013-01-06 14:33:00,32.0,1.0,-100.00,SW,225,13.0,17.0,26,0.00,,,-99.99,,2013-01-06 21:33:00,
2013-01-06 14:42:00,33.0,2.0,-100.00,SE,135,3.0,17.0,26,0.00,,,-99.99,,2013-01-06 21:42:00,
2013-01-06 14:52:00,32.0,1.0,-100.00,SW,235,10.0,15.0,26,0.00,,,-99.99,,2013-01-06 21:52:00,
2013-01-06 15:02:00,31.0,1.0,-100.00,SSW,205,7.0,15.0,26,0.00,,,-99.99,,2013-01-06 22:02:00,
2013-01-06 15:12:00,31.0,1.0,-100.00,SW,215,8.0,16.0,26,0.00,,,-99.99,,2013-01-06 22:12:00,
2013-01-06 15:22:00,31.0,1.0,-100.00,SW,215,7.0,14.0,27,0.00,,,-99.99,,2013-01-06 22:22:00,
2013-01-06 15:33:00,31.0,1.0,-100.00,WSW,240,6.0,12.0,27,0.00,,,-99.99,,2013-01-06 22:33:00,
2013-01-06 15:43:00,31.0,1.0,-100.00,SW,235,6.0,14.0,27,0.00,,,-99.99,,2013-01-06 22:43:00,
2013-01-06 15:52:00,30.0,0.0,-100.00,SW,215,7.0,12.0,27,0.00,,,-99.99,,2013-01-06 22:52:00,
2013-01-06 16:02:00,29.0,0.0,-100.00,SW,225,9.0,16.0,27,0.00,,,-99.99,,2013-01-06 23:02:00,
2013-01-06 16:12:00,28.0,-1.0,-100.00,SSW,210,6.0,12.0,27,0.00,,,-99.99,,2013-01-06 23:12:00,
2013-01-06 16:22:00,27.0,-1.0,-100.00,SW,220,9.0,12.0,28,0.00,,,-99.99,,2013-01-06 23:22:00,
2013-01-06 16:33:00,27.0,-1.0,-100.00,SSW,205,7.0,12.0,28,0.00,,,-99.99,,2013-01-06 23:33:00,
2013-01-06 16:42:00,27.0,-1.0,-100.00,SSW,210,6.0,11.0,29,0.00,,,-99.99,,2013-01-06 23:42:00,
2013-01-06 16:52:00,26.0,-1.0,-100.00,SW,215,7.0,10.0,29,0.00,,,-99.99,,2013-01-06 23:52:00,
2013-01-06 17:02:00,26.0,-1.0,-100.00,SW,225,8.0,11.0,29,0.00,,,-99.99,,2013-01-07 00:02:00,
2013-01-06 17:12:00,26.0,-1.0,-100.00,SW,220,7.0,13.0,29,0.00,,,-99.99,,2013-01-07 00:12:00,
2013-01-06 17:23:00,26.0,-1.0,-100.00,SW,215,9.0,12.0,30,0.00,,,-99.99,,2013-01-07 00:23:00,
2013-01-06 17:33:00,26.0,-1.0,-100.00,SW,225,9.0,13.0,30,0.00,,,-99.99,,2013-01-07 00:33:00,
2013-01-06 17:42:00,26.0,-2.0,-100.00,SW,230,11.0,15.0,29,0.00,,,-99.99,,2013-01-07 00:42:00,
2013-01-06 17:52:00,26.0,-2.0,-100.00,SW,230,8.0,14.0,29,0.00,,,-99.99,,2013-01-07 00:52:00,
2013-01-06 18:02:00,25.0,-2.0,-100.00,SW,235,12.0,16.0,29,0.00,,,-99.99,,2013-01-07 01:02:00,
2013-01-06 18:12:00,25.0,-2.0,-100.00,SW,220,10.0,15.0,29,0.00,,,-99.99,,2013-01-07 01:12:00,
2013-01-06 18:22:00,25.0,-2.0,-100.00,WSW,250,9.0,14.0,30,0.00,,,-99.99,,2013-01-07 01:22:00,
2013-01-06 18:32:00,25.0,-2.0,-100.00,SW,225,9.0,14.0,29,0.00,,,-99.99,,2013-01-07 01:32:00,
2013-01-06 18:42:00,25.0,-2.0,-100.00,SW,225,10.0,14.0,30,0.00,,,-99.99,,2013-01-07 01:42:00,
2013-01-06 18:52:00,24.0,-3.0,-100.00,SW,225,9.0,14.0,30,0.00,,,-99.99,,2013-01-07 01:52:00,
2013-01-06 19:02:00,24.0,-3.0,-100.00,WSW,245,9.0,14.0,30,0.00,,,-99.99,,2013-01-07 02:02:00,
2013-01-06 19:12:00,24.0,-3.0,-100.00,SW,225,9.0,14.0,30,0.00,,,-99.99,,2013-01-07 02:12:00,
2013-01-06 19:22:00,24.0,-3.0,-100.00,WSW,240,6.0,11.0,30,0.00,,,-99.99,,2013-01-07 02:22:00,
2013-01-06 19:32:00,23.0,-3.0,-100.00,SW,235,6.0,9.0,31,0.00,,,-99.99,,2013-01-07 02:32:00,
2013-01-06 19:42:00,22.0,-3.0,-100.00,SW,215,6.0,9.0,31,0.00,,,-99.99,,2013-01-07 02:42:00,
2013-01-06 19:52:00,23.0,-3.0,-100.00,SSW,210,10.0,14.0,31,0.00,,,-99.99,,2013-01-07 02:52:00,
2013-01-06 20:02:00,24.0,-2.0,-100.00,SW,230,9.0,14.0,31,0.00,,,-99.99,,2013-01-07 03:02:00,
2013-01-06 20:12:00,23.0,-2.0,-100.00,SW,235,9.0,17.0,31,0.00,,,-99.99,,2013-01-07 03:12:00,
2013-01-06 20:22:00,22.0,-3.0,-100.00,SW,220,9.0,15.0,32,0.00,,,-99.99,,2013-01-07 03:22:00,
2013-01-06 20:33:00,23.0,-2.0,-100.00,SW,230,9.0,13.0,32,0.00,,,-99.99,,2013-01-07 03:33:00,
2013-01-06 20:42:00,23.0,-2.0,-100.00,SW,235,8.0,14.0,32,0.00,,,-99.99,,2013-01-07 03:42:00,
2013-01-06 20:52:00,22.0,-3.0,-100.00,SW,225,8.0,12.0,32,0.00,,,-99.99,,2013-01-07 03:52:00,
2013-01-06 21:02:00,22.0,-3.0,-100.00,SW,220,7.0,12.0,32,0.00,,,-99.99,,2013-01-07 04:02:00,
2013-01-06 21:12:00,22.0,-3.0,-100.00,SW,230,9.0,12.0,33,0.00,,,-99.99,,2013-01-07 04:12:00,
2013-01-06 21:22:00,21.0,-3.0,-100.00,SW,220,7.0,12.0,33,0.00,,,-99.99,,2013-01-07 04:22:00,
2013-01-06 21:32:00,21.0,-3.0,-100.00,WSW,240,7.0,12.0,33,0.00,,,-99.99,,2013-01-07 04:32:00,
2013-01-06 21:42:00,21.0,-3.0,-100.00,SW,230,9.0,14.0,34,0.00,,,-99.99,,2013-01-07 04:42:00,
2013-01-06 21:52:00,22.0,-2.0,-100.00,SW,220,9.0,13.0,34,0.00,,,-99.99,,2013-01-07 04:52:00,
2013-01-06 22:02:00,21.0,-3.0,-100.00,SW,220,10.0,12.0,34,0.00,,,-99.99,,2013-01-07 05:02:00,
2013-01-06 22:12:00,21.0,-3.0,-100.00,SW,220,8.0,13.0,34,0.00,,,-99.99,,2013-01-07 05:12:00,
2013-01-06 22:22:00,21.0,-3.0,-100.00,SW,235,7.0,12.0,34,0.00,,,-99.99,,2013-01-07 05:22:00,
2013-01-06 22:33:00,22.0,-2.0,-100.00,WSW,250,9.0,14.0,34,0.00,,,-99.99,,2013-01-07 05:33:00,
2013-01-06 22:42:00,21.0,-2.0,-100.00,WSW,240,7.0,14.0,34,0.00,,,-99.99,,2013-01-07 05:42:00,
2013-01-06 22:52:00,22.0,-2.0,-100.00,WSW,240,7.0,11.0,34,0.00,,,-99.99,,2013-01-07 05:52:00,
2013-01-06 23:02:00,21.0,-3.0,-100.00,SW,225,9.0,11.0,34,0.00,,,-99.99,,2013-01-07 06:02:00,
2013-01-06 23:12:00,21.0,-3.0,-100.00,SW,230,8.0,11.0,34,0.00,,,-99.99,,2013-01-07 06:12:00,
2013-01-06 23:22:00,21.0,-3.0,-100.00,SW,230,9.0,11.0,34,0.00,,,-99.99,,2013-01-07 06:22:00,
2013-01-06 23:32:00,21.0,-3.0,-100.00,SW,230,9.0,12.0,34,0.00,,,-99.99,,2013-01-07 06:32:00,
2013-01-06 23:42:00,21.0,-3.0,-100.00,SW,230,9.0,13.0,34,0.00,,,-99.99,,2013-01-07 06:42:00,
2013-01-06 23:52:00,20.0,-3.0,-100.00,SW,230,8.0,15.0,34,0.00,,,-99.99,,2013-01-07 06:52:00,